[[{"header":{"parameterUnit":"m.s-1","parameterCategory":1,"la1":30.2991,"la2":30.254,"lo1":-89.0895,"lo2":-89.0444,"dy":0.0017,"dx":0.0017,"nx":28,"ny":28,"refTime":"2025-05-25T21:00:00:Z","depth":0,"parameterNumber":2,"parameterNumberName":"U-component_of_WINDS"},"data":[0,0,0,0,0,0,0,0,0,0,0,0,0,0,0,0,0,0,0,0,0,0,0,0,0,0,0,0,0,0,0,0,0,0,0,0,0,0,0,0,0,0,0,0,0,0,0,0,0,0,0,0,0,0,0,0,0,0,1.5503,1.5504,0,1.5562,1.5563,1.5564,1.5546,1.5545,1.5544,1.5543,1.5606,1.5608,1.5611,0,0,0,0,0,0,0,0,0,0,0,0,0,1.5376,1.5378,1.5503,1.5504,1.5504,1.5562,1.5563,1.5564,1.5546,1.5545,1.5543,1.5542,1.5605,1.5608,1.5611,0,0,0,0,0,0,0,0,0,0,0,0,0,1.5433,1.5379,1.5503,1.5503,1.5503,1.5562,1.5563,1.5564,1.5547,1.5545,1.5543,1.5541,1.5604,1.5608,1.5612,1.5675,0,0,1.5625,1.5627,0,0,0,0,0,0,0,0,1.5429,1.5437,1.5502,1.5503,1.5503,1.5545,1.5541,1.5601,1.5547,1.553,1.5543,1.554,1.5587,1.5593,1.5608,1.5678,1.5681,1.5625,1.5628,1.563,1.5631,0,0,0,0,0,0,0,1.5425,1.5435,1.5526,1.5503,1.5504,1.55,1.5506,1.5552,1.5568,1.5532,1.5531,1.5538,1.5587,1.5604,1.5609,1.5682,1.5625,1.5629,1.5632,1.5633,1.5805,1.5807,0,0,0,0,0,0,1.5421,1.5431,1.5524,1.5528,1.5461,1.5504,1.551,1.5534,1.5568,1.5571,1.5539,1.5537,1.5597,1.5604,1.5611,1.5686,1.563,1.5634,1.5636,1.5803,1.5805,1.5808,0,0,0,0,0,0,1.5418,1.5429,1.5522,1.5479,1.5491,1.5508,1.5534,1.5536,1.5552,1.5573,1.5576,1.5553,1.5596,1.5605,1.5659,1.5688,1.5636,1.5639,1.5801,1.5804,1.5807,1.5837,0,0,0,0,0,0,1.5414,1.5428,1.5452,1.548,1.5493,1.5568,1.5536,1.5538,1.5559,1.5556,1.5587,1.5591,1.5596,1.5653,1.5663,1.5693,1.5643,1.5798,1.5802,1.5806,1.5834,1.5841,1.5847,0,0,0,0,0,1.541,1.5459,1.5454,1.5465,1.5524,1.557,1.5578,1.5582,1.5562,1.5586,1.5599,1.559,1.5683,1.5658,1.567,1.5702,1.5796,1.5801,1.5805,1.5831,1.584,1.5847,0,0,0,0,0,0,1.5436,1.5463,1.5457,1.5517,1.5541,1.5567,1.5598,1.5591,1.5622,1.5618,1.5622,1.563,1.5684,1.5698,1.567,1.5764,1.5737,1.5744,1.5752,1.5761,1.5768,1.5763,1.5646,0,0,0,0,0,1.5448,1.5483,1.5505,1.5556,1.5569,1.5581,1.5602,1.5602,1.5628,1.5638,1.5656,1.5682,1.5716,1.574,1.5773,1.5836,1.5842,1.5864,1.587,1.5876,1.5882,1.5915,1.5924,1.5823,1.5823,1.5822,0,0,1.5475,1.5494,1.5516,1.5562,1.5581,1.5617,1.559,1.563,1.5657,1.5645,1.5695,1.5709,1.5738,1.5796,1.5823,1.581,1.5911,1.5881,1.5886,1.5889,1.592,1.593,1.5938,1.5826,1.5825,1.5825,0,0,1.5541,1.556,1.5603,1.5622,1.5651,1.5658,1.5669,1.5696,1.5704,1.5755,1.5746,1.5778,1.5839,1.586,1.5878,1.5951,1.5943,1.5962,1.5997,1.6029,1.6037,1.6044,1.6069,1.6078,1.5968,1.5968,1.5968,0,1.5571,1.5624,1.5627,1.5667,1.5687,1.5676,1.572,1.5739,1.5777,1.5791,1.5776,1.5851,1.587,1.5932,1.5949,1.5965,1.5977,1.5958,1.6036,1.6043,1.6049,1.6073,1.6083,1.597,1.597,1.5969,1.5969,0,1.5659,1.5696,1.5728,1.5763,1.5787,1.5829,1.5838,1.5862,1.586,1.5869,1.5921,1.5943,1.598,1.5995,1.5995,1.6057,1.6048,1.6034,1.6007,1.6061,1.6083,1.6093,1.5973,1.5972,1.5971,1.5971,0,0,1.5743,1.5779,1.579,1.5806,1.5836,1.5865,1.5906,1.5941,1.5961,1.5988,1.6022,1.6073,1.606,1.6081,1.6083,1.6111,1.6166,1.6094,1.6095,1.6106,1.6234,1.6244,1.6254,1.6161,1.6163,1.6164,1.6232,0,1.5811,1.5883,1.5885,1.5951,1.5985,1.5975,1.6011,1.6033,1.6043,1.6073,1.6084,1.612,1.6101,1.6113,1.614,1.6153,1.6192,1.6149,1.6193,1.6194,1.6185,1.6266,1.6276,1.6339,1.624,1.6242,1.6243,0,1.5901,1.5928,1.5997,1.602,1.6035,1.6067,1.6099,1.6128,1.6153,1.6158,1.6181,1.6178,1.622,1.6192,1.6249,1.622,1.6238,1.6247,1.625,1.6253,1.6221,1.6271,1.6359,1.6368,1.6257,1.6256,1.6255,0,1.5954,1.6009,1.6056,1.607,1.6099,1.6122,1.6135,1.6158,1.6179,1.6207,1.622,1.6254,1.6272,1.6297,1.6304,1.6283,1.6361,1.6334,1.6366,1.6366,1.6383,1.6381,1.6474,1.6396,1.6396,1.6395,1.6395,0,1.6029,1.6071,1.608,1.611,1.6156,1.6159,1.6205,1.6217,1.6237,1.6268,1.6263,1.6292,1.6299,1.633,1.6335,1.6381,1.639,1.6395,1.6396,1.6395,1.6394,1.6407,1.6402,1.6398,1.6397,1.6397,1.6396,0,1.6097,1.6105,1.6155,1.6179,1.6185,1.6218,1.6238,1.6266,1.6275,1.6314,1.6324,1.6338,1.6374,1.6382,1.6426,1.6429,1.6484,1.6481,1.6475,1.6475,1.6506,1.6503,1.6609,1.6623,1.6537,1.6537,1.6538,0,1.6144,1.6175,1.6201,1.6221,1.6235,1.6268,1.6288,1.6292,1.6314,1.6344,1.6368,1.6404,1.6432,1.649,1.6504,1.6537,1.6534,1.6569,1.6539,1.6537,1.6533,1.6531,1.6534,1.6575,1.6576,1.6577,1.6577,0,1.6226,1.6228,1.6257,1.6288,1.6312,1.6337,1.636,1.6377,1.6384,1.6409,1.6445,1.6467,1.651,1.6545,1.6578,1.6592,1.6586,1.6586,1.6595,1.6595,1.6589,1.6592,1.649,1.6584,1.6583,1.6583,1.6582,1.6582,1.6284,1.6311,1.6333,1.6366,1.6383,1.6405,1.6432,1.6443,1.6473,1.6508,1.6509,1.6548,1.6571,1.6614,1.6631,1.6661,1.6651,1.6664,1.6667,1.667,1.6672,1.6585,1.6668,1.6667,1.6667,1.6667,1.6667,0,1.6365,1.6378,1.6408,1.644,1.6466,1.6457,1.6482,1.6504,1.6538,1.656,1.6587,1.6629,1.6662,1.6678,1.6711,1.6733,1.6731,1.6741,1.6739,1.6742,1.6681,1.6669,1.6742,1.6742,1.6742,1.6742,1.6742,1.6742,1.6409,1.6454,1.6459,1.6512,1.6526,1.6563,1.6578,1.6598,1.6615,1.6661,1.6688,1.6698,1.6718,1.6752,1.6782,1.6786,1.6798,1.681,1.6813,1.6755,1.6747,1.674,1.6729,1.6813,1.6813,1.6872,1.6872,1.6873]},{"header":{"parameterUnit":"m.s-1","parameterCategory":1,"la1":30.2991,"la2":30.254,"lo1":-89.0895,"lo2":-89.0444,"dy":0.0017,"dx":0.0017,"nx":28,"ny":28,"refTime":"2025-05-25T21:00:00:Z","depth":0,"parameterNumber":3,"parameterNumberName":"V-component_of_WINDS"},"data":[0,0,0,0,0,0,0,0,0,0,0,0,0,0,0,0,0,0,0,0,0,0,0,0,0,0,0,0,0,0,0,0,0,0,0,0,0,0,0,0,0,0,0,0,0,0,0,0,0,0,0,0,0,0,0,0,0,0,5.8034,5.8036,0,5.8191,5.8193,5.8195,5.8183,5.8181,5.8179,5.8177,5.8328,5.8334,5.834,0,0,0,0,0,0,0,0,0,0,0,0,0,5.7715,5.7721,5.8034,5.8036,5.8038,5.8191,5.8193,5.8195,5.8184,5.8181,5.8178,5.8176,5.8326,5.8333,5.8341,0,0,0,0,0,0,0,0,0,0,0,0,0,5.7861,5.7723,5.8034,5.8051,5.8054,5.819,5.8193,5.8196,5.8184,5.8181,5.8177,5.8174,5.8323,5.8332,5.8342,5.8468,0,0,5.837,5.8374,0,0,0,0,0,0,0,0,5.7853,5.7873,5.8046,5.805,5.8054,5.8164,5.8136,5.8287,5.8185,5.8135,5.8177,5.8173,5.8276,5.8289,5.8325,5.8475,5.8481,5.8371,5.8376,5.838,5.8383,0,0,0,0,0,0,0,5.7843,5.7866,5.8096,5.8049,5.8054,5.8048,5.8065,5.8164,5.8222,5.8139,5.8138,5.8158,5.8277,5.8316,5.8329,5.8484,5.837,5.8379,5.8384,5.8388,5.8743,5.8747,0,0,0,0,0,0,5.783,5.7857,5.8091,5.8101,5.7943,5.8056,5.8075,5.8132,5.8221,5.8232,5.816,5.8156,5.8302,5.8318,5.8334,5.8487,5.838,5.8389,5.8394,5.8739,5.8744,5.8748,0,0,0,0,0,0,5.7823,5.7851,5.8084,5.7979,5.8008,5.8066,5.8129,5.8137,5.8177,5.8238,5.8247,5.8191,5.83,5.8321,5.8435,5.8492,5.8393,5.8402,5.8735,5.8741,5.8746,5.8794,0,0,0,0,0,0,5.7814,5.7849,5.7899,5.798,5.8014,5.8186,5.8133,5.8143,5.8194,5.819,5.8269,5.8278,5.8299,5.8421,5.8444,5.8503,5.8409,5.873,5.8737,5.8744,5.8788,5.8801,5.8813,0,0,0,0,0,5.7803,5.7905,5.7902,5.793,5.8079,5.8189,5.8208,5.8233,5.8199,5.8248,5.8288,5.8276,5.8482,5.8433,5.8459,5.8521,5.8726,5.8735,5.8744,5.8782,5.8799,5.8812,0,0,0,0,0,0,5.7826,5.7916,5.7914,5.8046,5.811,5.8187,5.8251,5.8249,5.8322,5.8316,5.834,5.8358,5.8472,5.8508,5.8452,5.8647,5.8599,5.8614,5.862,5.8636,5.8648,5.8636,5.8416,0,0,0,0,0,5.7847,5.7932,5.8004,5.8114,5.8147,5.8194,5.8242,5.8256,5.8322,5.8349,5.8396,5.8458,5.8537,5.8589,5.8665,5.8793,5.8809,5.8849,5.8861,5.8871,5.8882,5.8952,5.897,5.8777,5.8777,5.8777,0,0,5.789,5.795,5.8001,5.812,5.8172,5.8256,5.8216,5.8307,5.8369,5.8361,5.8473,5.851,5.8581,5.8702,5.8758,5.8736,5.8939,5.8882,5.8889,5.8896,5.8962,5.8981,5.8997,5.8783,5.8782,5.8781,0,0,5.8012,5.8066,5.8163,5.8217,5.8296,5.8327,5.835,5.8428,5.8453,5.8566,5.8562,5.8634,5.877,5.882,5.8864,5.9005,5.8996,5.9029,5.9092,5.916,5.9175,5.9188,5.9237,5.9255,5.904,5.904,5.904,0,5.8054,5.8185,5.8212,5.8305,5.8356,5.8356,5.8453,5.8502,5.8601,5.8635,5.8609,5.878,5.8828,5.8961,5.8995,5.9031,5.9056,5.9019,5.9171,5.9185,5.9198,5.9245,5.9263,5.9044,5.9043,5.9043,5.9043,0,5.8232,5.8322,5.8391,5.849,5.8549,5.8643,5.8682,5.8738,5.8746,5.8778,5.8892,5.895,5.9037,5.907,5.9077,5.9204,5.9187,5.9166,5.9118,5.9219,5.9264,5.9282,5.9049,5.9047,5.9046,5.9045,0,0,5.8372,5.8487,5.8511,5.8556,5.8644,5.8713,5.8805,5.8894,5.8941,5.9009,5.9086,5.9201,5.9182,5.9231,5.9245,5.9304,5.941,5.9275,5.9277,5.9297,5.9551,5.9566,5.9587,5.9406,5.9409,5.9412,5.9545,0,5.8502,5.8671,5.8698,5.8845,5.8927,5.8928,5.9008,5.9069,5.9102,5.9174,5.9208,5.9289,5.9259,5.9289,5.9348,5.9385,5.9461,5.9376,5.9474,5.9478,5.9456,5.961,5.9626,5.9749,5.9563,5.9566,5.9568,0,5.8677,5.8753,5.8908,5.8985,5.9021,5.9093,5.9176,5.9246,5.9314,5.9333,5.9389,5.9395,5.9488,5.9437,5.9565,5.9506,5.9547,5.9572,5.9577,5.9586,5.9528,5.9622,5.9789,5.9807,5.9596,5.9593,5.9591,0,5.8762,5.8903,5.9014,5.9052,5.9145,5.9196,5.9236,5.9301,5.9352,5.9424,5.9457,5.9537,5.9581,5.9641,5.9668,5.9628,5.9793,5.9744,5.9809,5.9808,5.9843,5.984,6.0017,5.9872,5.9871,5.9871,5.987,0,5.8904,5.8998,5.9054,5.9122,5.9227,5.9257,5.9359,5.9397,5.9455,5.9529,5.9533,5.9601,5.9633,5.9705,5.9726,5.9828,5.9847,5.9863,5.9867,5.9863,5.986,5.9889,5.9881,5.9876,5.9875,5.9874,5.9873,0,5.9016,5.9058,5.9179,5.9258,5.9279,5.9353,5.9419,5.9483,5.9516,5.9609,5.9632,5.9681,5.9767,5.98,5.9903,5.9917,6.0033,6.0031,6.0011,6.0012,6.0075,6.0068,6.0276,6.0304,6.0141,6.0142,6.0144,0,5.9104,5.9177,5.9265,5.9316,5.9359,5.9441,5.9494,5.9525,5.9579,5.9663,5.9716,5.9802,5.9872,6.0008,6.0051,6.0129,6.0128,6.0196,6.014,6.0132,6.0128,6.0123,6.013,6.0206,6.0207,6.0209,6.021,0,5.9254,5.9271,5.935,5.9435,5.9499,5.9567,5.9633,5.9674,5.9714,5.9775,5.9864,5.9918,6.0025,6.0109,6.019,6.0228,6.0225,6.0227,6.0246,6.0241,6.0227,6.0235,6.0039,6.0222,6.0221,6.022,6.0219,6.0219,5.9356,5.9421,5.9493,5.958,5.9633,5.9695,5.976,5.9801,5.9877,5.9968,5.9981,6.0076,6.014,6.025,6.0291,6.0363,6.0345,6.0373,6.038,6.0386,6.039,6.0216,6.0378,6.0378,6.0377,6.0377,6.0377,0,5.9506,5.9553,5.9632,5.9726,5.9793,5.9789,5.9861,5.9917,6.0001,6.0064,6.0133,6.0234,6.0316,6.0366,6.0448,6.0496,6.0497,6.0516,6.0512,6.0521,6.0402,6.0377,6.0514,6.0514,6.0514,6.0514,6.0514,6.0514,5.9592,5.9701,5.9727,5.9862,5.9907,6.0003,6.0044,6.01,6.015,6.0264,6.0333,6.0367,6.0423,6.0509,6.0583,6.0595,6.0624,6.0645,6.0656,6.0543,6.0529,6.0515,6.0492,6.0651,6.0652,6.0768,6.0769,6.077]}]]